Wetterdaten: aktuell Mittwoch, 01.04.2020 13:45
Datum Zeit Temp. Feuchte Luftdruck Nieders. Wind Richtung Richtung Sonnenschein Solar Taupunkt Windchill Windben
01.04.2020 13:45 9,2 C 38 % 1020,9 hPa 0,0 l/m 3,6 km/h (1 Bft) S-SW 200 5 min 591 W/m -4,4 C 9,2 C 9,7 km/h (2 Bft)
01.04.2020 13:40 8,9 C 38 % 1020,9 hPa 0,0 l/m 2,7 km/h (1 Bft) W-SW 242 5 min 621 W/m -4,6 C 8,9 C 12,9 km/h (3 Bft)
01.04.2020 13:35 8,8 C 37 % 1021,0 hPa 0,0 l/m 3,0 km/h (1 Bft) W 265 5 min 656 W/m -5,1 C 8,8 C 16,1 km/h (3 Bft)
01.04.2020 13:30 8,7 C 38 % 1021,1 hPa 0,0 l/m 0,4 km/h (0 Bft) W 272 5 min 696 W/m -4,8 C 8,7 C 3,2 km/h (1 Bft)
01.04.2020 13:25 8,5 C 37 % 1021,2 hPa 0,0 l/m 0,6 km/h (0 Bft) W 273 5 min 731 W/m -5,3 C 8,5 C 4,8 km/h (1 Bft)
01.04.2020 13:20 8,5 C 38 % 1021,3 hPa 0,0 l/m 4,0 km/h (1 Bft) W 273 5 min 737 W/m -5,0 C 8,5 C 11,3 km/h (2 Bft)
01.04.2020 13:15 8,4 C 38 % 1021,4 hPa 0,0 l/m 1,8 km/h (1 Bft) W 261 5 min 737 W/m -5,1 C 8,4 C 6,4 km/h (2 Bft)
01.04.2020 13:10 8,6 C 38 % 1021,5 hPa 0,0 l/m 3,8 km/h (1 Bft) N-NW 329 5 min 735 W/m -4,9 C 8,6 C 11,3 km/h (2 Bft)
01.04.2020 13:05 8,4 C 38 % 1021,6 hPa 0,0 l/m 2,3 km/h (1 Bft) W-NW 294 5 min 737 W/m -5,1 C 8,4 C 11,3 km/h (2 Bft)
01.04.2020 13:00 8,3 C 40 % 1021,7 hPa 0,0 l/m 3,6 km/h (1 Bft) NO 53 5 min 737 W/m -4,5 C 8,3 C 14,5 km/h (3 Bft)
01.04.2020 12:55 8,2 C 40 % 1021,8 hPa 0,0 l/m 0,3 km/h (0 Bft) SW 219 5 min 737 W/m -4,6 C 8,2 C 4,8 km/h (1 Bft)
01.04.2020 12:50 7,9 C 38 % 1021,9 hPa 0,0 l/m 1,5 km/h (1 Bft) SW 236 5 min 735 W/m -5,5 C 7,9 C 6,4 km/h (2 Bft)
01.04.2020 12:45 7,9 C 38 % 1022,0 hPa 0,0 l/m 2,9 km/h (1 Bft) W 273 5 min 731 W/m -5,5 C 7,9 C 9,7 km/h (2 Bft)
01.04.2020 12:40 8,1 C 38 % 1022,1 hPa 0,0 l/m 2,2 km/h (1 Bft) W 268 5 min 733 W/m -5,3 C 8,1 C 11,3 km/h (2 Bft)
01.04.2020 12:35 7,8 C 39 % 1022,1 hPa 0,0 l/m 0,9 km/h (0 Bft) S-SW 198 5 min 729 W/m -5,3 C 7,8 C 6,4 km/h (2 Bft)
01.04.2020 12:30 7,7 C 42 % 1022,2 hPa 0,0 l/m 3,6 km/h (1 Bft) S-SW 196 5 min 726 W/m -4,4 C 7,7 C 8,0 km/h (2 Bft)
01.04.2020 12:25 7,6 C 39 % 1022,3 hPa 0,0 l/m 4,1 km/h (1 Bft) S-SW 205 5 min 719 W/m -5,4 C 7,6 C 9,7 km/h (2 Bft)
01.04.2020 12:20 7,6 C 38 % 1022,4 hPa 0,0 l/m 4,7 km/h (1 Bft) SW 226 5 min 715 W/m -5,8 C 7,6 C 11,3 km/h (2 Bft)
01.04.2020 12:15 7,8 C 38 % 1022,5 hPa 0,0 l/m 0,7 km/h (0 Bft) W 267 5 min 714 W/m -5,6 C 7,8 C 9,7 km/h (2 Bft)
01.04.2020 12:10 7,6 C 39 % 1022,6 hPa 0,0 l/m 0,1 km/h (0 Bft) W-NW 286 5 min 705 W/m -5,4 C 7,6 C 3,2 km/h (1 Bft)
01.04.2020 12:05 7,4 C 40 % 1022,6 hPa 0,0 l/m 0,4 km/h (0 Bft) W-NW 286 5 min 703 W/m -5,3 C 7,4 C 3,2 km/h (1 Bft)
01.04.2020 12:00 7,2 C 40 % 1022,7 hPa 0,0 l/m 0,4 km/h (0 Bft) W-NW 283 5 min 698 W/m -5,5 C 7,2 C 3,2 km/h (1 Bft)
01.04.2020 11:55 7,1 C 40 % 1022,8 hPa 0,0 l/m 0,4 km/h (0 Bft) W-NW 284 5 min 694 W/m -5,6 C 7,1 C 3,2 km/h (1 Bft)
01.04.2020 11:50 7,1 C 39 % 1022,9 hPa 0,0 l/m 1,1 km/h (1 Bft) W-NW 284 5 min 689 W/m -5,9 C 7,1 C 4,8 km/h (1 Bft)
01.04.2020 11:45 7,1 C 41 % 1023,0 hPa 0,0 l/m 0,4 km/h (0 Bft) W-NW 285 5 min 679 W/m -5,2 C 7,1 C 4,8 km/h (1 Bft)
01.04.2020 11:40 7,0 C 41 % 1023,0 hPa 0,0 l/m 0,1 km/h (0 Bft) W-NW 288 5 min 670 W/m -5,3 C 7,0 C 3,2 km/h (1 Bft)
01.04.2020 11:35 6,8 C 41 % 1023,2 hPa 0,0 l/m 0,8 km/h (0 Bft) W-NW 289 5 min 664 W/m -5,5 C 6,8 C 4,8 km/h (1 Bft)
01.04.2020 11:30 6,6 C 42 % 1023,2 hPa 0,0 l/m 0,1 km/h (0 Bft) W-NW 292 5 min 656 W/m -5,4 C 6,6 C 3,2 km/h (1 Bft)
01.04.2020 11:25 6,4 C 41 % 1023,3 hPa 0,0 l/m 1,7 km/h (1 Bft) W-NW 294 5 min 649 W/m -5,9 C 6,4 C 8,0 km/h (2 Bft)
01.04.2020 11:20 6,2 C 42 % 1023,4 hPa 0,0 l/m 1,3 km/h (1 Bft) SW 229 5 min 643 W/m -5,7 C 6,2 C 6,4 km/h (2 Bft)
01.04.2020 11:15 6,1 C 45 % 1023,4 hPa 0,0 l/m 0,8 km/h (0 Bft) SW 227 5 min 633 W/m -4,9 C 6,1 C 6,4 km/h (2 Bft)
01.04.2020 11:10 5,8 C 48 % 1023,4 hPa 0,0 l/m 0,5 km/h (0 Bft) SW 221 5 min 626 W/m -4,3 C 5,8 C 3,2 km/h (1 Bft)
01.04.2020 11:05 5,6 C 46 % 1023,5 hPa 0,0 l/m 3,6 km/h (1 Bft) SW 219 5 min 619 W/m -5,1 C 5,6 C 8,0 km/h (2 Bft)
01.04.2020 11:00 5,6 C 48 % 1023,6 hPa 0,0 l/m 0,4 km/h (0 Bft) W-SW 237 5 min 608 W/m -4,5 C 5,6 C 4,8 km/h (1 Bft)
01.04.2020 10:55 5,3 C 49 % 1023,6 hPa 0,0 l/m 0,8 km/h (0 Bft) W-SW 238 5 min 599 W/m -4,5 C 5,3 C 4,8 km/h (1 Bft)
01.04.2020 10:50 5,2 C 49 % 1023,6 hPa 0,0 l/m 2,1 km/h (1 Bft) W-SW 237 5 min 589 W/m -4,6 C 5,2 C 8,0 km/h (2 Bft)
01.04.2020 10:45 5,0 C 49 % 1023,7 hPa 0,0 l/m 0,4 km/h (0 Bft) SW 217 5 min 584 W/m -4,8 C 5,0 C 6,4 km/h (2 Bft)
01.04.2020 10:40 4,9 C 50 % 1023,6 hPa 0,0 l/m 1,5 km/h (1 Bft) S-SO 148 5 min 573 W/m -4,6 C 4,9 C 8,0 km/h (2 Bft)
01.04.2020 10:35 4,8 C 51 % 1023,7 hPa 0,0 l/m 0,4 km/h (0 Bft) SO 146 5 min 563 W/m -4,5 C 4,8 C 6,4 km/h (2 Bft)
01.04.2020 10:30 4,7 C 51 % 1023,8 hPa 0,0 l/m 0,5 km/h (0 Bft) SO 146 5 min 550 W/m -4,6 C 4,7 C 8,0 km/h (2 Bft)
01.04.2020 10:25 4,9 C 50 % 1023,7 hPa 0,0 l/m 1,4 km/h (1 Bft) SO 133 5 min 541 W/m -4,6 C 4,9 C 4,8 km/h (1 Bft)
01.04.2020 10:20 4,9 C 51 % 1023,7 hPa 0,0 l/m 0,4 km/h (0 Bft) SO 133 5 min 531 W/m -4,4 C 4,9 C 6,4 km/h (2 Bft)
01.04.2020 10:15 4,8 C 46 % 1023,7 hPa 0,0 l/m 0,0 km/h (0 Bft) SO 125 5 min 506 W/m -5,8 C 4,8 C 0,0 km/h (0 Bft)
01.04.2020 10:10 4,8 C 47 % 1023,7 hPa 0,0 l/m 0,0 km/h (0 Bft) SO 125 5 min 323 W/m -5,5 C 4,8 C 0,0 km/h (0 Bft)
01.04.2020 10:05 4,7 C 51 % 1023,8 hPa 0,0 l/m 0,0 km/h (0 Bft) SO 125 5 min 415 W/m -4,6 C 4,7 C 0,0 km/h (0 Bft)
01.04.2020 10:00 4,2 C 57 % 1023,8 hPa 0,0 l/m 0,0 km/h (0 Bft) SO 125 5 min 504 W/m -3,5 C 4,2 C 0,0 km/h (0 Bft)
01.04.2020 09:55 3,6 C 56 % 1023,8 hPa 0,0 l/m 0,0 km/h (0 Bft) SO 125 5 min 288 W/m -4,3 C 3,6 C 0,0 km/h (0 Bft)
01.04.2020 09:50 3,0 C 62 % 1023,8 hPa 0,0 l/m 0,0 km/h (0 Bft) SO 125 5 min 417 W/m -3,6 C 3,0 C 0,0 km/h (0 Bft)
01.04.2020 09:45 2,6 C 62 % 1023,9 hPa 0,0 l/m 0,0 km/h (0 Bft) SO 125 5 min 446 W/m -3,9 C 2,6 C 0,0 km/h (0 Bft)
01.04.2020 09:40 2,2 C 62 % 1023,9 hPa 0,0 l/m 0,0 km/h (0 Bft) SO 125 5 min 450 W/m -4,3 C 2,2 C 0,0 km/h (0 Bft)
01.04.2020 09:35 1,7 C 65 % 1023,9 hPa 0,0 l/m 0,0 km/h (0 Bft) SO 125 5 min 432 W/m -4,2 C 1,7 C 0,0 km/h (0 Bft)
01.04.2020 09:30 1,3 C 67 % 1024,0 hPa 0,0 l/m 0,0 km/h (0 Bft) SO 125 5 min 425 W/m -4,1 C 1,3 C 0,0 km/h (0 Bft)
01.04.2020 09:25 0,9 C 67 % 1023,9 hPa 0,0 l/m 0,0 km/h (0 Bft) SO 125 5 min 399 W/m -4,5 C 0,9 C 0,0 km/h (0 Bft)
01.04.2020 09:20 0,6 C 70 % 1024,0 hPa 0,0 l/m 0,0 km/h (0 Bft) SO 125 5 min 392 W/m -4,2 C 0,6 C 0,0 km/h (0 Bft)
01.04.2020 09:15 0,2 C 71 % 1024,0 hPa 0,0 l/m 0,0 km/h (0 Bft) SO 125 5 min 374 W/m -4,4 C 0,2 C 0,0 km/h (0 Bft)
01.04.2020 09:10 -0,2 C 72 % 1024,1 hPa 0,0 l/m 0,0 km/h (0 Bft) SO 125 5 min 357 W/m -4,6 C -0,2 C 0,0 km/h (0 Bft)
01.04.2020 09:05 -0,5 C 72 % 1024,0 hPa 0,0 l/m 0,0 km/h (0 Bft) SO 125 5 min 339 W/m -4,9 C -0,5 C 0,0 km/h (0 Bft)
01.04.2020 09:00 -0,8 C 72 % 1024,0 hPa 0,0 l/m 0,0 km/h (0 Bft) SO 125 5 min 329 W/m -5,2 C -0,8 C 0,0 km/h (0 Bft)
01.04.2020 08:55 -0,9 C 74 % 1024,0 hPa 0,0 l/m 0,0 km/h (0 Bft) SO 125 5 min 311 W/m -4,9 C -0,9 C 0,0 km/h (0 Bft)
01.04.2020 08:50 -1,2 C 76 % 1024,0 hPa 0,0 l/m 0,0 km/h (0 Bft) SO 125 5 min 257 W/m -4,9 C -1,2 C 0,0 km/h (0 Bft)
01.04.2020 08:45 -1,6 C 77 % 1024,1 hPa 0,0 l/m 0,0 km/h (0 Bft) SO 125 5 min 276 W/m -5,1 C -1,6 C 0,0 km/h (0 Bft)
01.04.2020 08:40 -1,9 C 77 % 1024,1 hPa 0,0 l/m 0,0 km/h (0 Bft) SO 125 5 min 262 W/m -5,4 C -1,9 C 0,0 km/h (0 Bft)
01.04.2020 08:35 -2,2 C 78 % 1024,1 hPa 0,0 l/m 0,0 km/h (0 Bft) SO 125 5 min 255 W/m -5,5 C -2,2 C 0,0 km/h (0 Bft)
01.04.2020 08:30 -2,5 C 79 % 1024,2 hPa 0,0 l/m 0,0 km/h (0 Bft) SO 125 5 min 248 W/m -5,6 C -2,5 C 0,0 km/h (0 Bft)
01.04.2020 08:25 -2,8 C 80 % 1024,2 hPa 0,0 l/m 0,0 km/h (0 Bft) SO 125 5 min 213 W/m -5,8 C -2,8 C 0,0 km/h (0 Bft)
01.04.2020 08:20 -3,1 C 84 % 1024,2 hPa 0,0 l/m 0,0 km/h (0 Bft) SO 125 0 min 114 W/m -5,4 C -3,1 C 0,0 km/h (0 Bft)
01.04.2020 08:15 -3,4 C 84 % 1024,2 hPa 0,0 l/m 0,0 km/h (0 Bft) SO 125 0 min 91 W/m -5,7 C -3,4 C 0,0 km/h (0 Bft)
01.04.2020 08:10 -3,7 C 85 % 1024,2 hPa 0,0 l/m 0,0 km/h (0 Bft) SO 125 0 min 56 W/m -5,8 C -3,7 C 0,0 km/h (0 Bft)
01.04.2020 08:05 -4,0 C 85 % 1024,3 hPa 0,0 l/m 0,0 km/h (0 Bft) SO 125 0 min 47 W/m -6,1 C -4,0 C 0,0 km/h (0 Bft)
01.04.2020 08:00 -4,2 C 86 % 1024,3 hPa 0,0 l/m 0,0 km/h (0 Bft) SO 125 0 min 33 W/m -6,2 C -4,2 C 0,0 km/h (0 Bft)
01.04.2020 07:55 -4,4 C 86 % 1024,4 hPa 0,0 l/m 0,0 km/h (0 Bft) SO 125 0 min 32 W/m -6,4 C -4,4 C 0,0 km/h (0 Bft)
01.04.2020 07:50 -4,5 C 85 % 1024,4 hPa 0,0 l/m 0,0 km/h (0 Bft) SO 125 0 min 28 W/m -6,6 C -4,5 C 0,0 km/h (0 Bft)
01.04.2020 07:45 -4,6 C 85 % 1024,3 hPa 0,0 l/m 0,0 km/h (0 Bft) SO 125 0 min 25 W/m -6,7 C -4,6 C 0,0 km/h (0 Bft)
01.04.2020 07:40 -4,5 C 85 % 1024,3 hPa 0,0 l/m 0,0 km/h (0 Bft) SO 125 0 min 23 W/m -6,6 C -4,5 C 0,0 km/h (0 Bft)
01.04.2020 07:35 -4,5 C 85 % 1024,3 hPa 0,0 l/m 0,0 km/h (0 Bft) SO 125 0 min 21 W/m -6,6 C -4,5 C 0,0 km/h (0 Bft)
01.04.2020 07:30 -4,5 C 85 % 1024,2 hPa 0,0 l/m 0,0 km/h (0 Bft) SO 125 0 min 19 W/m -6,6 C -4,5 C 0,0 km/h (0 Bft)
01.04.2020 07:25 -4,6 C 85 % 1024,3 hPa 0,0 l/m 0,0 km/h (0 Bft) SO 125 0 min 16 W/m -6,7 C -4,6 C 0,0 km/h (0 Bft)
01.04.2020 07:20 -4,8 C 85 % 1024,2 hPa 0,0 l/m 0,0 km/h (0 Bft) SO 125 0 min 14 W/m -6,9 C -4,8 C 0,0 km/h (0 Bft)
01.04.2020 07:15 -4,8 C 84 % 1024,3 hPa 0,0 l/m 0,0 km/h (0 Bft) SO 125 0 min 12 W/m -7,1 C -4,8 C 0,0 km/h (0 Bft)
01.04.2020 07:10 -4,8 C 83 % 1024,3 hPa 0,0 l/m 0,0 km/h (0 Bft) SO 125 0 min 9 W/m -7,2 C -4,8 C 0,0 km/h (0 Bft)
01.04.2020 07:05 -4,8 C 83 % 1024,3 hPa 0,0 l/m 0,0 km/h (0 Bft) SO 125 0 min 7 W/m -7,2 C -4,8 C 0,0 km/h (0 Bft)
01.04.2020 07:00 -4,6 C 82 % 1024,3 hPa 0,0 l/m 0,0 km/h (0 Bft) SO 125 0 min 5 W/m -7,2 C -4,6 C 0,0 km/h (0 Bft)
01.04.2020 06:55 -4,4 C 82 % 1024,4 hPa 0,0 l/m 0,0 km/h (0 Bft) SO 125 0 min 0 W/m -7,0 C -4,4 C 0,0 km/h (0 Bft)
01.04.2020 06:50 -4,2 C 82 % 1024,4 hPa 0,0 l/m 0,0 km/h (0 Bft) SO 125 0 min 0 W/m -6,8 C -4,2 C 0,0 km/h (0 Bft)
01.04.2020 06:45 -4,1 C 83 % 1024,4 hPa 0,0 l/m 0,0 km/h (0 Bft) SO 125 0 min 0 W/m -6,5 C -4,1 C 0,0 km/h (0 Bft)
01.04.2020 06:40 -4,1 C 83 % 1024,5 hPa 0,0 l/m 0,0 km/h (0 Bft) SO 125 0 min 0 W/m -6,5 C -4,1 C 0,0 km/h (0 Bft)
01.04.2020 06:35 -4,3 C 85 % 1024,5 hPa 0,0 l/m 0,0 km/h (0 Bft) SO 125 0 min 0 W/m -6,4 C -4,3 C 0,0 km/h (0 Bft)
01.04.2020 06:30 -4,5 C 85 % 1024,4 hPa 0,0 l/m 0,0 km/h (0 Bft) SO 125 0 min 0 W/m -6,6 C -4,5 C 0,0 km/h (0 Bft)
01.04.2020 06:25 -4,7 C 86 % 1024,4 hPa 0,0 l/m 0,0 km/h (0 Bft) SO 125 0 min 0 W/m -6,7 C -4,7 C 0,0 km/h (0 Bft)
01.04.2020 06:20 -4,8 C 86 % 1024,4 hPa 0,0 l/m 0,0 km/h (0 Bft) SO 125 0 min 0 W/m -6,8 C -4,8 C 0,0 km/h (0 Bft)
01.04.2020 06:15 -4,9 C 86 % 1024,4 hPa 0,0 l/m 0,0 km/h (0 Bft) SO 125 0 min 0 W/m -6,9 C -4,9 C 0,0 km/h (0 Bft)
01.04.2020 06:10 -5,0 C 86 % 1024,4 hPa 0,0 l/m 0,0 km/h (0 Bft) SO 125 0 min 0 W/m -7,0 C -5,0 C 0,0 km/h (0 Bft)
01.04.2020 06:05 -5,1 C 86 % 1024,5 hPa 0,0 l/m 0,0 km/h (0 Bft) SO 125 0 min 0 W/m -7,1 C -5,1 C 0,0 km/h (0 Bft)
01.04.2020 05:55 -5,1 C 86 % 1024,6 hPa 0,0 l/m 0,0 km/h (0 Bft) N 0 0 min 0 W/m -7,1 C -5,1 C 0,0 km/h (0 Bft)
01.04.2020 05:50 -4,9 C 86 % 1024,6 hPa 0,0 l/m 0,0 km/h (0 Bft) N 0 0 min 0 W/m -6,9 C -4,9 C 0,0 km/h (0 Bft)
01.04.2020 05:45 -4,9 C 86 % 1024,7 hPa 0,0 l/m 0,0 km/h (0 Bft) N 0 0 min 0 W/m -6,9 C -4,9 C 0,0 km/h (0 Bft)
01.04.2020 05:40 -4,9 C 86 % 1024,8 hPa 0,0 l/m 0,0 km/h (0 Bft) N 0 0 min 0 W/m -6,9 C -4,9 C 0,0 km/h (0 Bft)
01.04.2020 05:35 -4,9 C 86 % 1024,8 hPa 0,0 l/m 0,0 km/h (0 Bft) N 0 0 min 0 W/m -6,9 C -4,9 C 0,0 km/h (0 Bft)
01.04.2020 05:30 -4,8 C 85 % 1024,8 hPa 0,0 l/m 0,0 km/h (0 Bft) N 0 0 min 0 W/m -6,9 C -4,8 C 0,0 km/h (0 Bft)
01.04.2020 05:25 -4,8 C 85 % 1024,8 hPa 0,0 l/m 0,0 km/h (0 Bft) N 0 0 min 0 W/m -6,9 C -4,8 C 0,0 km/h (0 Bft)
01.04.2020 05:20 -4,7 C 85 % 1024,9 hPa 0,0 l/m 0,0 km/h (0 Bft) N 0 0 min 0 W/m -6,8 C -4,7 C 0,0 km/h (0 Bft)
01.04.2020 05:15 -4,7 C 85 % 1024,8 hPa 0,0 l/m 0,0 km/h (0 Bft) N 0 0 min 0 W/m -6,8 C -4,7 C 0,0 km/h (0 Bft)
01.04.2020 05:10 -4,6 C 85 % 1024,9 hPa 0,0 l/m 0,0 km/h (0 Bft) N 0 0 min 0 W/m -6,7 C -4,6 C 0,0 km/h (0 Bft)
01.04.2020 05:05 -4,6 C 85 % 1024,9 hPa 0,0 l/m 0,0 km/h (0 Bft) N 0 0 min 0 W/m -6,7 C -4,6 C 0,0 km/h (0 Bft)
01.04.2020 05:00 -4,5 C 84 % 1024,9 hPa 0,0 l/m 0,0 km/h (0 Bft) N 0 0 min 0 W/m -6,8 C -4,5 C 0,0 km/h (0 Bft)
01.04.2020 04:55 -4,4 C 84 % 1025,0 hPa 0,0 l/m 0,0 km/h (0 Bft) N 0 0 min 0 W/m -6,7 C -4,4 C 0,0 km/h (0 Bft)
01.04.2020 04:50 -4,4 C 85 % 1025,0 hPa 0,0 l/m 0,0 km/h (0 Bft) N 0 0 min 0 W/m -6,5 C -4,4 C 0,0 km/h (0 Bft)
01.04.2020 04:45 -4,4 C 84 % 1025,0 hPa 0,0 l/m 0,0 km/h (0 Bft) N 0 0 min 0 W/m -6,7 C -4,4 C 0,0 km/h (0 Bft)
01.04.2020 04:40 -4,4 C 83 % 1025,1 hPa 0,0 l/m 0,0 km/h (0 Bft) N 0 0 min 0 W/m -6,8 C -4,4 C 0,0 km/h (0 Bft)
01.04.2020 04:35 -4,4 C 83 % 1025,1 hPa 0,0 l/m 0,0 km/h (0 Bft) N 0 0 min 0 W/m -6,8 C -4,4 C 0,0 km/h (0 Bft)
01.04.2020 04:30 -4,3 C 83 % 1025,1 hPa 0,0 l/m 0,0 km/h (0 Bft) N 0 0 min 0 W/m -6,7 C -4,3 C 0,0 km/h (0 Bft)
01.04.2020 04:25 -4,3 C 83 % 1025,1 hPa 0,0 l/m 0,0 km/h (0 Bft) N 0 0 min 0 W/m -6,7 C -4,3 C 0,0 km/h (0 Bft)
01.04.2020 04:20 -4,2 C 83 % 1025,2 hPa 0,0 l/m 0,0 km/h (0 Bft) N 0 0 min 0 W/m -6,6 C -4,2 C 0,0 km/h (0 Bft)
01.04.2020 04:15 -4,2 C 83 % 1025,3 hPa 0,0 l/m 0,0 km/h (0 Bft) N 0 0 min 0 W/m -6,6 C -4,2 C 0,0 km/h (0 Bft)
01.04.2020 04:10 -4,1 C 82 % 1025,4 hPa 0,0 l/m 0,0 km/h (0 Bft) N 0 0 min 0 W/m -6,7 C -4,1 C 0,0 km/h (0 Bft)
01.04.2020 04:05 -4,1 C 82 % 1025,4 hPa 0,0 l/m 0,0 km/h (0 Bft) N 0 0 min 0 W/m -6,7 C -4,1 C 0,0 km/h (0 Bft)
01.04.2020 04:00 -3,9 C 82 % 1025,5 hPa 0,0 l/m 0,0 km/h (0 Bft) N 0 0 min 0 W/m -6,5 C -3,9 C 0,0 km/h (0 Bft)
01.04.2020 03:55 -3,8 C 82 % 1025,5 hPa 0,0 l/m 0,0 km/h (0 Bft) N 0 0 min 0 W/m -6,4 C -3,8 C 0,0 km/h (0 Bft)
01.04.2020 03:50 -3,7 C 81 % 1025,5 hPa 0,0 l/m 0,0 km/h (0 Bft) N 0 0 min 0 W/m -6,5 C -3,7 C 0,0 km/h (0 Bft)
01.04.2020 03:45 -3,6 C 81 % 1025,5 hPa 0,0 l/m 0,0 km/h (0 Bft) N 0 0 min 0 W/m -6,4 C -3,6 C 0,0 km/h (0 Bft)
01.04.2020 03:40 -3,5 C 81 % 1025,5 hPa 0,0 l/m 0,0 km/h (0 Bft) N 0 0 min 0 W/m -6,3 C -3,5 C 0,0 km/h (0 Bft)
01.04.2020 03:35 -3,4 C 81 % 1025,5 hPa 0,0 l/m 0,0 km/h (0 Bft) N 0 0 min 0 W/m -6,2 C -3,4 C 0,0 km/h (0 Bft)
01.04.2020 03:30 -3,4 C 81 % 1025,6 hPa 0,0 l/m 0,0 km/h (0 Bft) N 0 0 min 0 W/m -6,2 C -3,4 C 0,0 km/h (0 Bft)
01.04.2020 03:25 -3,4 C 80 % 1025,6 hPa 0,0 l/m 0,0 km/h (0 Bft) N 0 0 min 0 W/m -6,3 C -3,4 C 0,0 km/h (0 Bft)
01.04.2020 03:20 -3,3 C 80 % 1025,6 hPa 0,0 l/m 0,0 km/h (0 Bft) N 0 0 min 0 W/m -6,2 C -3,3 C 0,0 km/h (0 Bft)
01.04.2020 03:15 -3,2 C 80 % 1025,6 hPa 0,0 l/m 0,0 km/h (0 Bft) N 0 0 min 0 W/m -6,1 C -3,2 C 0,0 km/h (0 Bft)
01.04.2020 03:10 -3,2 C 80 % 1025,6 hPa 0,0 l/m 0,0 km/h (0 Bft) N 0 0 min 0 W/m -6,1 C -3,2 C 0,0 km/h (0 Bft)
01.04.2020 03:05 -3,2 C 80 % 1025,7 hPa 0,0 l/m 0,0 km/h (0 Bft) N 0 0 min 0 W/m -6,1 C -3,2 C 0,0 km/h (0 Bft)
01.04.2020 03:00 -3,1 C 80 % 1025,7 hPa 0,0 l/m 0,0 km/h (0 Bft) N 0 0 min 0 W/m -6,0 C -3,1 C 0,0 km/h (0 Bft)
01.04.2020 02:55 -3,1 C 79 % 1025,7 hPa 0,0 l/m 0,0 km/h (0 Bft) N 0 0 min 0 W/m -6,2 C -3,1 C 0,0 km/h (0 Bft)
01.04.2020 02:50 -3,0 C 79 % 1025,7 hPa 0,0 l/m 0,0 km/h (0 Bft) N 0 0 min 0 W/m -6,1 C -3,0 C 0,0 km/h (0 Bft)
01.04.2020 02:45 -2,9 C 79 % 1025,7 hPa 0,0 l/m 0,0 km/h (0 Bft) N 0 0 min 0 W/m -6,0 C -2,9 C 0,0 km/h (0 Bft)
01.04.2020 02:40 -2,9 C 79 % 1025,7 hPa 0,0 l/m 0,0 km/h (0 Bft) N 0 0 min 0 W/m -6,0 C -2,9 C 0,0 km/h (0 Bft)
01.04.2020 02:35 -2,8 C 79 % 1025,7 hPa 0,0 l/m 0,0 km/h (0 Bft) N 0 0 min 0 W/m -5,9 C -2,8 C 0,0 km/h (0 Bft)
01.04.2020 02:30 -2,7 C 78 % 1025,8 hPa 0,0 l/m 0,0 km/h (0 Bft) N 0 0 min 0 W/m -6,0 C -2,7 C 0,0 km/h (0 Bft)
01.04.2020 02:25 -2,6 C 78 % 1025,7 hPa 0,0 l/m 0,0 km/h (0 Bft) N 0 0 min 0 W/m -5,9 C -2,6 C 0,0 km/h (0 Bft)
01.04.2020 02:20 -2,6 C 79 % 1025,8 hPa 0,0 l/m 0,0 km/h (0 Bft) N 0 0 min 0 W/m -5,7 C -2,6 C 0,0 km/h (0 Bft)
01.04.2020 02:15 -2,7 C 79 % 1025,9 hPa 0,0 l/m 0,0 km/h (0 Bft) N 0 0 min 0 W/m -5,8 C -2,7 C 0,0 km/h (0 Bft)
01.04.2020 02:10 -2,7 C 79 % 1025,9 hPa 0,0 l/m 0,0 km/h (0 Bft) N 0 0 min 0 W/m -5,8 C -2,7 C 0,0 km/h (0 Bft)
01.04.2020 02:05 -2,8 C 80 % 1025,9 hPa 0,0 l/m 0,0 km/h (0 Bft) N 0 0 min 0 W/m -5,8 C -2,8 C 0,0 km/h (0 Bft)
01.04.2020 02:00 -2,9 C 80 % 1025,9 hPa 0,0 l/m 0,0 km/h (0 Bft) N 0 0 min 0 W/m -5,9 C -2,9 C 0,0 km/h (0 Bft)
01.04.2020 01:55 -2,8 C 79 % 1025,9 hPa 0,0 l/m 0,0 km/h (0 Bft) N 0 0 min 0 W/m -5,9 C -2,8 C 0,0 km/h (0 Bft)
01.04.2020 01:50 -2,8 C 79 % 1025,9 hPa 0,0 l/m 0,0 km/h (0 Bft) N 0 0 min 0 W/m -5,9 C -2,8 C 0,0 km/h (0 Bft)
01.04.2020 01:45 -2,7 C 79 % 1025,9 hPa 0,0 l/m 0,0 km/h (0 Bft) N 0 0 min 0 W/m -5,8 C -2,7 C 0,0 km/h (0 Bft)
01.04.2020 01:40 -2,6 C 79 % 1025,9 hPa 0,0 l/m 0,0 km/h (0 Bft) N 0 0 min 0 W/m -5,7 C -2,6 C 0,0 km/h (0 Bft)
01.04.2020 01:35 -2,4 C 79 % 1025,9 hPa 0,0 l/m 0,0 km/h (0 Bft) N 0 0 min 0 W/m -5,5 C -2,4 C 0,0 km/h (0 Bft)
01.04.2020 01:30 -2,3 C 78 % 1026,0 hPa 0,0 l/m 0,0 km/h (0 Bft) N 0 0 min 0 W/m -5,6 C -2,3 C 0,0 km/h (0 Bft)
01.04.2020 01:25 -2,3 C 78 % 1026,0 hPa 0,0 l/m 0,0 km/h (0 Bft) N 0 0 min 0 W/m -5,6 C -2,3 C 0,0 km/h (0 Bft)
01.04.2020 01:20 -2,2 C 77 % 1026,1 hPa 0,0 l/m 0,0 km/h (0 Bft) N 0 0 min 0 W/m -5,7 C -2,2 C 0,0 km/h (0 Bft)
01.04.2020 01:15 -2,1 C 76 % 1026,1 hPa 0,0 l/m 0,0 km/h (0 Bft) N 0 0 min 0 W/m -5,7 C -2,1 C 0,0 km/h (0 Bft)
01.04.2020 01:10 -1,9 C 76 % 1026,2 hPa 0,0 l/m 0,0 km/h (0 Bft) N 0 0 min 0 W/m -5,6 C -1,9 C 0,0 km/h (0 Bft)
01.04.2020 01:05 -1,8 C 75 % 1026,2 hPa 0,0 l/m 0,0 km/h (0 Bft) N 0 0 min 0 W/m -5,6 C -1,8 C 0,0 km/h (0 Bft)
01.04.2020 01:00 -1,8 C 75 % 1026,3 hPa 0,0 l/m 0,0 km/h (0 Bft) N 0 0 min 0 W/m -5,6 C -1,8 C 0,0 km/h (0 Bft)
01.04.2020 00:55 -1,7 C 74 % 1026,3 hPa 0,0 l/m 0,0 km/h (0 Bft) N 0 0 min 0 W/m -5,7 C -1,7 C 0,0 km/h (0 Bft)
01.04.2020 00:50 -1,6 C 74 % 1026,4 hPa 0,0 l/m 0,0 km/h (0 Bft) N 0 0 min 0 W/m -5,6 C -1,6 C 0,0 km/h (0 Bft)
01.04.2020 00:45 -1,5 C 73 % 1026,4 hPa 0,0 l/m 0,0 km/h (0 Bft) N 0 0 min 0 W/m -5,7 C -1,5 C 0,0 km/h (0 Bft)
01.04.2020 00:40 -1,3 C 73 % 1026,4 hPa 0,0 l/m 0,0 km/h (0 Bft) N 0 0 min 0 W/m -5,5 C -1,3 C 0,0 km/h (0 Bft)
01.04.2020 00:35 -1,2 C 72 % 1026,5 hPa 0,0 l/m 0,0 km/h (0 Bft) N 0 0 min 0 W/m -5,6 C -1,2 C 0,0 km/h (0 Bft)
01.04.2020 00:30 -1,2 C 71 % 1026,5 hPa 0,0 l/m 0,0 km/h (0 Bft) N 0 0 min 0 W/m -5,8 C -1,2 C 0,0 km/h (0 Bft)
01.04.2020 00:25 -1,2 C 71 % 1026,5 hPa 0,0 l/m 0,0 km/h (0 Bft) N 0 0 min 0 W/m -5,8 C -1,2 C 0,0 km/h (0 Bft)
01.04.2020 00:20 -1,1 C 71 % 1026,5 hPa 0,0 l/m 0,0 km/h (0 Bft) N 0 0 min 0 W/m -5,7 C -1,1 C 0,0 km/h (0 Bft)
01.04.2020 00:15 -1,1 C 70 % 1026,4 hPa 0,0 l/m 0,0 km/h (0 Bft) N 0 0 min 0 W/m -5,9 C -1,1 C 0,0 km/h (0 Bft)
01.04.2020 00:10 -0,9 C 71 % 1026,5 hPa 0,0 l/m 0,0 km/h (0 Bft) N 0 0 min 0 W/m -5,5 C -0,9 C 0,0 km/h (0 Bft)
01.04.2020 00:05 -0,8 C 71 % 1026,5 hPa 0,0 l/m 0,0 km/h (0 Bft) N 0 0 min 0 W/m -5,4 C -0,8 C 0,0 km/h (0 Bft)
01.04.2020 00:00 -0,8 C 69 % 1026,5 hPa 0,0 l/m 0,0 km/h (0 Bft) N 0 0 min 0 W/m -5,8 C -0,8 C 0,0 km/h (0 Bft)
31.03.2020 23:55 -0,7 C 69 % 1026,5 hPa 0,0 l/m 0,0 km/h (0 Bft) N 0 0 min 0 W/m -5,7 C -0,7 C 0,0 km/h (0 Bft)
31.03.2020 23:50 -0,5 C 68 % 1026,5 hPa 0,0 l/m 0,0 km/h (0 Bft) N 0 0 min 0 W/m -5,7 C -0,5 C 0,0 km/h (0 Bft)
31.03.2020 23:45 -0,3 C 68 % 1026,5 hPa 0,0 l/m 0,0 km/h (0 Bft) N 0 0 min 0 W/m -5,5 C -0,3 C 0,0 km/h (0 Bft)
31.03.2020 23:40 -0,1 C 66 % 1026,6 hPa 0,0 l/m 0,0 km/h (0 Bft) N 0 0 min 0 W/m -5,7 C -0,1 C 0,0 km/h (0 Bft)
31.03.2020 23:35 0,2 C 66 % 1026,7 hPa 0,0 l/m 0,0 km/h (0 Bft) N 0 0 min 0 W/m -5,4 C 0,2 C 0,0 km/h (0 Bft)
31.03.2020 23:30 0,4 C 64 % 1026,7 hPa 0,0 l/m 0,0 km/h (0 Bft) N 0 0 min 0 W/m -5,6 C 0,4 C 0,0 km/h (0 Bft)
31.03.2020 23:25 0,7 C 64 % 1026,8 hPa 0,0 l/m 0,0 km/h (0 Bft) N 0 0 min 0 W/m -5,3 C 0,7 C 0,0 km/h (0 Bft)
31.03.2020 23:20 0,8 C 62 % 1026,8 hPa 0,0 l/m 0,0 km/h (0 Bft) N 0 0 min 0 W/m -5,6 C 0,8 C 0,0 km/h (0 Bft)
31.03.2020 23:15 0,9 C 60 % 1026,7 hPa 0,0 l/m 0,0 km/h (0 Bft) N 0 0 min 0 W/m -6,0 C 0,9 C 0,0 km/h (0 Bft)
31.03.2020 23:10 1,0 C 59 % 1026,8 hPa 0,0 l/m 0,0 km/h (0 Bft) N 0 0 min 0 W/m -6,1 C 1,0 C 0,0 km/h (0 Bft)
31.03.2020 23:05 1,2 C 60 % 1026,8 hPa 0,0 l/m 0,0 km/h (0 Bft) N 0 0 min 0 W/m -5,7 C 1,2 C 0,0 km/h (0 Bft)
31.03.2020 23:00 1,3 C 59 % 1026,9 hPa 0,0 l/m 0,0 km/h (0 Bft) SO 126 0 min 0 W/m -5,8 C 1,3 C 0,0 km/h (0 Bft)
31.03.2020 22:55 1,6 C 58 % 1026,8 hPa 0,0 l/m 0,0 km/h (0 Bft) SO 125 0 min 0 W/m -5,8 C 1,6 C 0,0 km/h (0 Bft)
31.03.2020 22:50 1,7 C 58 % 1026,9 hPa 0,0 l/m 0,1 km/h (0 Bft) SO 125 0 min 0 W/m -5,7 C 1,7 C 3,2 km/h (1 Bft)
31.03.2020 22:45 1,5 C 58 % 1026,9 hPa 0,0 l/m 1,1 km/h (1 Bft) SO 126 0 min 0 W/m -5,8 C 1,5 C 6,4 km/h (2 Bft)
31.03.2020 22:40 1,4 C 59 % 1026,9 hPa 0,0 l/m 0,3 km/h (0 Bft) SO 126 0 min 0 W/m -5,7 C 1,4 C 4,8 km/h (1 Bft)
31.03.2020 22:35 1,4 C 59 % 1027,0 hPa 0,0 l/m 1,5 km/h (1 Bft) SO 125 0 min 0 W/m -5,7 C 1,4 C 6,4 km/h (2 Bft)
31.03.2020 22:30 1,5 C 59 % 1027,0 hPa 0,0 l/m 1,9 km/h (1 Bft) SO 125 0 min 0 W/m -5,6 C 1,5 C 6,4 km/h (2 Bft)
31.03.2020 22:25 1,7 C 58 % 1027,0 hPa 0,0 l/m 2,2 km/h (1 Bft) SO 126 0 min 0 W/m -5,7 C 1,7 C 6,4 km/h (2 Bft)
31.03.2020 22:20 1,8 C 58 % 1027,0 hPa 0,0 l/m 0,6 km/h (0 Bft) SO 125 0 min 0 W/m -5,6 C 1,8 C 4,8 km/h (1 Bft)
31.03.2020 22:15 2,1 C 57 % 1027,0 hPa 0,0 l/m 0,2 km/h (0 Bft) SO 126 0 min 0 W/m -5,5 C 2,1 C 3,2 km/h (1 Bft)
31.03.2020 22:10 2,3 C 56 % 1027,0 hPa 0,0 l/m 0,6 km/h (0 Bft) SO 126 0 min 0 W/m -5,6 C 2,3 C 4,8 km/h (1 Bft)
31.03.2020 22:05 2,5 C 54 % 1027,1 hPa 0,0 l/m 1,5 km/h (1 Bft) SO 125 0 min 0 W/m -5,8 C 2,5 C 4,8 km/h (1 Bft)
31.03.2020 22:00 2,8 C 53 % 1027,1 hPa 0,0 l/m 0,9 km/h (0 Bft) SO 125 0 min 0 W/m -5,8 C 2,8 C 6,4 km/h (2 Bft)
31.03.2020 21:55 3,0 C 53 % 1027,2 hPa 0,0 l/m 1,3 km/h (1 Bft) SO 125 0 min 0 W/m -5,6 C 3,0 C 4,8 km/h (1 Bft)
31.03.2020 21:50 2,9 C 52 % 1027,2 hPa 0,0 l/m 3,3 km/h (1 Bft) SO 125 0 min 0 W/m -6,0 C 2,9 C 8,0 km/h (2 Bft)
31.03.2020 21:45 3,0 C 52 % 1027,2 hPa 0,0 l/m 3,8 km/h (1 Bft) SO 124 0 min 0 W/m -5,9 C 3,0 C 6,4 km/h (2 Bft)
31.03.2020 21:40 3,2 C 51 % 1027,2 hPa 0,0 l/m 1,3 km/h (1 Bft) O-SO 121 0 min 0 W/m -5,9 C 3,2 C 6,4 km/h (2 Bft)
31.03.2020 21:35 3,4 C 51 % 1027,2 hPa 0,0 l/m 1,5 km/h (1 Bft) O-SO 121 0 min 0 W/m -5,8 C 3,4 C 4,8 km/h (1 Bft)
31.03.2020 21:30 3,6 C 50 % 1027,3 hPa 0,0 l/m 0,3 km/h (0 Bft) O-SO 121 0 min 0 W/m -5,8 C 3,6 C 4,8 km/h (1 Bft)
31.03.2020 21:25 3,6 C 48 % 1027,3 hPa 0,0 l/m 0,3 km/h (0 Bft) O-SO 121 0 min 0 W/m -6,4 C 3,6 C 4,8 km/h (1 Bft)
31.03.2020 21:20 3,4 C 51 % 1027,3 hPa 0,0 l/m 1,4 km/h (1 Bft) O-SO 123 0 min 0 W/m -5,8 C 3,4 C 4,8 km/h (1 Bft)
31.03.2020 21:15 3,5 C 51 % 1027,4 hPa 0,0 l/m 2,3 km/h (1 Bft) O-SO 123 0 min 0 W/m -5,7 C 3,5 C 6,4 km/h (2 Bft)
31.03.2020 21:10 3,6 C 50 % 1027,4 hPa 0,0 l/m 1,8 km/h (1 Bft) O-SO 123 0 min 0 W/m -5,8 C 3,6 C 6,4 km/h (2 Bft)
31.03.2020 21:05 3,8 C 50 % 1027,4 hPa 0,0 l/m 0,0 km/h (0 Bft) O-SO 123 0 min 0 W/m -5,6 C 3,8 C 1,6 km/h (1 Bft)
31.03.2020 21:00 4,2 C 49 % 1027,4 hPa 0,0 l/m 1,3 km/h (1 Bft) O-SO 123 0 min 0 W/m -5,5 C 4,2 C 4,8 km/h (1 Bft)
31.03.2020 20:55 4,6 C 48 % 1027,4 hPa 0,0 l/m 0,0 km/h (0 Bft) O-SO 123 0 min 0 W/m -5,4 C 4,6 C 0,0 km/h (0 Bft)
31.03.2020 20:50 4,7 C 45 % 1027,4 hPa 0,0 l/m 0,0 km/h (0 Bft) O-SO 123 0 min 0 W/m -6,2 C 4,7 C 0,0 km/h (0 Bft)
31.03.2020 20:45 4,9 C 46 % 1027,5 hPa 0,0 l/m 0,0 km/h (0 Bft) O-SO 122 0 min 0 W/m -5,7 C 4,9 C 0,0 km/h (0 Bft)
31.03.2020 20:40 5,1 C 44 % 1027,4 hPa 0,0 l/m 0,0 km/h (0 Bft) O-SO 122 0 min 0 W/m -6,1 C 5,1 C 1,6 km/h (1 Bft)
31.03.2020 20:35 5,2 C 45 % 1027,4 hPa 0,0 l/m 0,1 km/h (0 Bft) O-SO 123 0 min 0 W/m -5,7 C 5,2 C 3,2 km/h (1 Bft)
31.03.2020 20:30 5,3 C 44 % 1027,4 hPa 0,0 l/m 0,6 km/h (0 Bft) O-SO 123 0 min 0 W/m -5,9 C 5,3 C 6,4 km/h (2 Bft)
31.03.2020 20:25 5,4 C 43 % 1027,4 hPa 0,0 l/m 0,0 km/h (0 Bft) O-SO 123 0 min 0 W/m -6,2 C 5,4 C 0,0 km/h (0 Bft)
31.03.2020 20:20 5,6 C 43 % 1027,5 hPa 0,0 l/m 0,3 km/h (0 Bft) O-SO 123 0 min 0 W/m -6,0 C 5,6 C 6,4 km/h (2 Bft)
31.03.2020 20:15 5,8 C 42 % 1027,5 hPa 0,0 l/m 0,3 km/h (0 Bft) O-NO 57 0 min 0 W/m -6,1 C 5,8 C 4,8 km/h (1 Bft)
31.03.2020 20:10 5,8 C 42 % 1027,3 hPa 0,0 l/m 2,1 km/h (1 Bft) O-NO 57 0 min 0 W/m -6,1 C 5,8 C 6,4 km/h (2 Bft)
31.03.2020 20:05 5,9 C 42 % 1027,3 hPa 0,0 l/m 0,1 km/h (0 Bft) NO 55 0 min 0 W/m -6,0 C 5,9 C 3,2 km/h (1 Bft)
31.03.2020 20:00 6,0 C 41 % 1027,3 hPa 0,0 l/m 1,8 km/h (1 Bft) NO 55 0 min 0 W/m -6,2 C 6,0 C 4,8 km/h (1 Bft)
31.03.2020 19:55 6,1 C 41 % 1027,3 hPa 0,0 l/m 4,8 km/h (1 Bft) NO 55 0 min 0 W/m -6,1 C 6,1 C 14,5 km/h (3 Bft)
31.03.2020 19:50 6,1 C 41 % 1027,3 hPa 0,0 l/m 1,4 km/h (1 Bft) O-NO 57 0 min 7 W/m -6,1 C 6,1 C 6,4 km/h (2 Bft)
31.03.2020 19:45 6,2 C 41 % 1027,2 hPa 0,0 l/m 0,6 km/h (0 Bft) O-NO 58 0 min 9 W/m -6,1 C 6,2 C 3,2 km/h (1 Bft)
31.03.2020 19:40 6,4 C 41 % 1027,2 hPa 0,0 l/m 0,5 km/h (0 Bft) O-NO 58 0 min 12 W/m -5,9 C 6,4 C 4,8 km/h (1 Bft)
31.03.2020 19:35 6,4 C 40 % 1027,2 hPa 0,0 l/m 1,4 km/h (1 Bft) O-NO 58 0 min 14 W/m -6,2 C 6,4 C 6,4 km/h (2 Bft)
31.03.2020 19:30 6,5 C 39 % 1027,1 hPa 0,0 l/m 3,0 km/h (1 Bft) O-NO 57 0 min 18 W/m -6,4 C 6,5 C 8,0 km/h (2 Bft)
31.03.2020 19:25 6,6 C 40 % 1027,2 hPa 0,0 l/m 2,3 km/h (1 Bft) O-NO 57 0 min 19 W/m -6,0 C 6,6 C 8,0 km/h (2 Bft)
31.03.2020 19:20 6,8 C 40 % 1027,1 hPa 0,0 l/m 0,1 km/h (0 Bft) O-NO 57 0 min 21 W/m -5,8 C 6,8 C 3,2 km/h (1 Bft)
31.03.2020 19:15 6,8 C 40 % 1027,1 hPa 0,0 l/m 0,1 km/h (0 Bft) O-NO 57 0 min 23 W/m -5,8 C 6,8 C 3,2 km/h (1 Bft)
31.03.2020 19:10 7,0 C 40 % 1027,1 hPa 0,0 l/m 0,9 km/h (0 Bft) O-NO 57 0 min 25 W/m -5,7 C 7,0 C 8,0 km/h (2 Bft)
31.03.2020 19:05 7,2 C 40 % 1027,0 hPa 0,0 l/m 0,1 km/h (0 Bft) NO 56 0 min 26 W/m -5,5 C 7,2 C 3,2 km/h (1 Bft)
31.03.2020 19:00 7,3 C 39 % 1027,0 hPa 0,0 l/m 0,0 km/h (0 Bft) NO 56 0 min 67 W/m -5,7 C 7,3 C 0,0 km/h (0 Bft)
31.03.2020 18:55 7,3 C 40 % 1027,0 hPa 0,0 l/m 0,1 km/h (0 Bft) NO 56 0 min 84 W/m -5,4 C 7,3 C 3,2 km/h (1 Bft)
31.03.2020 18:50 7,3 C 40 % 1027,0 hPa 0,0 l/m 0,3 km/h (0 Bft) NO 56 0 min 91 W/m -5,4 C 7,3 C 4,8 km/h (1 Bft)
31.03.2020 18:45 7,4 C 40 % 1027,0 hPa 0,0 l/m 1,4 km/h (1 Bft) NO 56 0 min 97 W/m -5,3 C 7,4 C 8,0 km/h (2 Bft)
31.03.2020 18:40 7,6 C 39 % 1027,0 hPa 0,0 l/m 0,6 km/h (0 Bft) NO 53 0 min 118 W/m -5,4 C 7,6 C 6,4 km/h (2 Bft)
31.03.2020 18:35 7,6 C 39 % 1027,0 hPa 0,0 l/m 2,9 km/h (1 Bft) NO 51 0 min 141 W/m -5,4 C 7,6 C 8,0 km/h (2 Bft)
31.03.2020 18:30 7,8 C 39 % 1027,0 hPa 0,0 l/m 0,9 km/h (0 Bft) NO 53 0 min 149 W/m -5,3 C 7,8 C 4,8 km/h (1 Bft)
31.03.2020 18:25 7,8 C 39 % 1026,9 hPa 0,0 l/m 1,6 km/h (1 Bft) NO 47 5 min 183 W/m -5,3 C 7,8 C 6,4 km/h (2 Bft)
31.03.2020 18:20 7,7 C 38 % 1026,9 hPa 0,0 l/m 0,8 km/h (0 Bft) N-NO 30 5 min 199 W/m -5,7 C 7,7 C 4,8 km/h (1 Bft)
31.03.2020 18:15 7,8 C 37 % 1026,9 hPa 0,0 l/m 1,3 km/h (1 Bft) O 96 5 min 211 W/m -6,0 C 7,8 C 14,5 km/h (3 Bft)
31.03.2020 18:10 7,9 C 38 % 1027,0 hPa 0,0 l/m 2,9 km/h (1 Bft) O-NO 57 5 min 216 W/m -5,5 C 7,9 C 9,7 km/h (2 Bft)
31.03.2020 18:05 8,1 C 39 % 1027,1 hPa 0,0 l/m 1,2 km/h (1 Bft) O-NO 59 5 min 220 W/m -5,0 C 8,1 C 6,4 km/h (2 Bft)
31.03.2020 18:00 8,2 C 37 % 1027,0 hPa 0,0 l/m 1,4 km/h (1 Bft) N-NO 24 5 min 211 W/m -5,6 C 8,2 C 8,0 km/h (2 Bft)
31.03.2020 17:55 8,3 C 38 % 1027,2 hPa 0,0 l/m 3,2 km/h (1 Bft) NO 53 5 min 236 W/m -5,2 C 8,3 C 12,9 km/h (3 Bft)
31.03.2020 17:50 8,4 C 38 % 1027,1 hPa 0,0 l/m 3,9 km/h (1 Bft) O-NO 71 5 min 283 W/m -5,1 C 8,4 C 12,9 km/h (3 Bft)
31.03.2020 17:45 8,4 C 40 % 1027,2 hPa 0,0 l/m 0,8 km/h (0 Bft) NO 50 5 min 302 W/m -4,4 C 8,4 C 8,0 km/h (2 Bft)
31.03.2020 17:40 8,2 C 39 % 1027,2 hPa 0,0 l/m 0,5 km/h (0 Bft) NO 51 5 min 311 W/m -4,9 C 8,2 C 4,8 km/h (1 Bft)
31.03.2020 17:35 8,1 C 38 % 1027,3 hPa 0,0 l/m 2,6 km/h (1 Bft) NO 51 5 min 299 W/m -5,3 C 8,1 C 8,0 km/h (2 Bft)
31.03.2020 17:30 8,3 C 37 % 1027,3 hPa 0,0 l/m 2,8 km/h (1 Bft) NO 49 0 min 63 W/m -5,5 C 8,3 C 14,5 km/h (3 Bft)
31.03.2020 17:25 8,6 C 38 % 1027,3 hPa 0,0 l/m 1,3 km/h (1 Bft) N 10 5 min 250 W/m -4,9 C 8,6 C 12,9 km/h (3 Bft)
31.03.2020 17:20 8,6 C 37 % 1027,3 hPa 0,0 l/m 2,4 km/h (1 Bft) NO 55 5 min 327 W/m -5,2 C 8,6 C 9,7 km/h (2 Bft)
31.03.2020 17:15 8,3 C 38 % 1027,3 hPa 0,0 l/m 0,8 km/h (0 Bft) NO 53 5 min 341 W/m -5,2 C 8,3 C 8,0 km/h (2 Bft)
31.03.2020 17:10 7,9 C 39 % 1027,3 hPa 0,0 l/m 1,4 km/h (1 Bft) N-NO 24 5 min 348 W/m -5,2 C 7,9 C 6,4 km/h (2 Bft)
31.03.2020 17:05 7,8 C 39 % 1027,4 hPa 0,0 l/m 2,9 km/h (1 Bft) NO 46 0 min 79 W/m -5,3 C 7,8 C 12,9 km/h (3 Bft)
31.03.2020 17:00 8,2 C 38 % 1027,4 hPa 0,0 l/m 0,8 km/h (0 Bft) N-NO 19 0 min 79 W/m -5,3 C 8,2 C 8,0 km/h (2 Bft)
31.03.2020 16:55 8,7 C 37 % 1027,4 hPa 0,0 l/m 2,5 km/h (1 Bft) NO 55 0 min 102 W/m -5,2 C 8,7 C 9,7 km/h (2 Bft)
31.03.2020 16:50 9,0 C 38 % 1027,4 hPa 0,0 l/m 2,5 km/h (1 Bft) NO 45 5 min 431 W/m -4,5 C 9,0 C 9,7 km/h (2 Bft)
31.03.2020 16:45 9,1 C 38 % 1027,4 hPa 0,0 l/m 2,0 km/h (1 Bft) N-NO 22 5 min 424 W/m -4,5 C 9,1 C 9,7 km/h (2 Bft)
31.03.2020 16:40 9,2 C 37 % 1027,4 hPa 0,0 l/m 1,4 km/h (1 Bft) NO 46 5 min 448 W/m -4,7 C 9,2 C 8,0 km/h (2 Bft)
31.03.2020 16:35 9,1 C 37 % 1027,5 hPa 0,0 l/m 2,4 km/h (1 Bft) NO 46 5 min 461 W/m -4,8 C 9,1 C 16,1 km/h (3 Bft)
31.03.2020 16:30 9,1 C 37 % 1027,5 hPa 0,0 l/m 1,4 km/h (1 Bft) O 83 5 min 473 W/m -4,8 C 9,1 C 12,9 km/h (3 Bft)
31.03.2020 16:25 9,2 C 37 % 1027,5 hPa 0,0 l/m 1,7 km/h (1 Bft) NO 45 5 min 494 W/m -4,7 C 9,2 C 6,4 km/h (2 Bft)
31.03.2020 16:20 9,3 C 37 % 1027,5 hPa 0,0 l/m 2,8 km/h (1 Bft) NO 51 5 min 529 W/m -4,6 C 9,3 C 9,7 km/h (2 Bft)
31.03.2020 16:15 9,2 C 37 % 1027,5 hPa 0,0 l/m 0,6 km/h (0 Bft) NO 49 5 min 575 W/m -4,7 C 9,2 C 8,0 km/h (2 Bft)
31.03.2020 16:10 9,3 C 37 % 1027,5 hPa 0,0 l/m 1,9 km/h (1 Bft) NO 49 5 min 573 W/m -4,6 C 9,3 C 9,7 km/h (2 Bft)
31.03.2020 16:05 9,2 C 37 % 1027,5 hPa 0,0 l/m 0,6 km/h (0 Bft) N-NO 24 5 min 580 W/m -4,7 C 9,2 C 6,4 km/h (2 Bft)
31.03.2020 16:00 9,2 C 39 % 1027,5 hPa 0,0 l/m 0,8 km/h (0 Bft) N-NO 14 5 min 598 W/m -4,0 C 9,2 C 4,8 km/h (1 Bft)
31.03.2020 15:55 9,1 C 37 % 1027,6 hPa 0,0 l/m 2,4 km/h (1 Bft) N-NO 25 5 min 606 W/m -4,8 C 9,1 C 8,0 km/h (2 Bft)
31.03.2020 15:50 8,8 C 37 % 1027,5 hPa 0,0 l/m 1,8 km/h (1 Bft) N-NO 26 5 min 589 W/m -5,1 C 8,8 C 11,3 km/h (2 Bft)
31.03.2020 15:45 8,7 C 37 % 1027,6 hPa 0,0 l/m 1,1 km/h (1 Bft) NO 53 5 min 591 W/m -5,2 C 8,7 C 6,4 km/h (2 Bft)
31.03.2020 15:40 8,7 C 35 % 1027,7 hPa 0,0 l/m 3,4 km/h (1 Bft) NO 49 5 min 599 W/m -5,9 C 8,7 C 12,9 km/h (3 Bft)
31.03.2020 15:35 8,7 C 36 % 1027,7 hPa 0,0 l/m 5,8 km/h (2 Bft) O-NO 65 5 min 606 W/m -5,5 C 8,7 C 12,9 km/h (3 Bft)
31.03.2020 15:30 8,8 C 36 % 1027,7 hPa 0,0 l/m 2,2 km/h (1 Bft) O 94 5 min 628 W/m -5,4 C 8,8 C 9,7 km/h (2 Bft)
31.03.2020 15:25 8,7 C 37 % 1027,7 hPa 0,0 l/m 1,5 km/h (1 Bft) O 100 5 min 626 W/m -5,2 C 8,7 C 11,3 km/h (2 Bft)
31.03.2020 15:20 8,8 C 38 % 1027,7 hPa 0,0 l/m 3,5 km/h (1 Bft) O-NO 57 5 min 633 W/m -4,7 C 8,8 C 11,3 km/h (2 Bft)
31.03.2020 15:15 8,7 C 37 % 1027,8 hPa 0,0 l/m 6,7 km/h (2 Bft) O-NO 71 5 min 643 W/m -5,2 C 8,5 C 17,7 km/h (3 Bft)
31.03.2020 15:10 8,8 C 40 % 1027,8 hPa 0,0 l/m 3,7 km/h (1 Bft) NO 49 5 min 661 W/m -4,0 C 8,8 C 8,0 km/h (2 Bft)
31.03.2020 15:05 8,5 C 38 % 1027,9 hPa 0,0 l/m 5,8 km/h (2 Bft) NO 34 5 min 661 W/m -5,0 C 8,5 C 14,5 km/h (3 Bft)
31.03.2020 15:00 8,4 C 39 % 1027,9 hPa 0,0 l/m 3,6 km/h (1 Bft) N-NO 30 5 min 673 W/m -4,7 C 8,4 C 9,7 km/h (2 Bft)
31.03.2020 14:55 8,6 C 38 % 1027,9 hPa 0,0 l/m 5,3 km/h (1 Bft) N-NO 27 5 min 264 W/m -4,9 C 8,6 C 12,9 km/h (3 Bft)
31.03.2020 14:50 9,1 C 38 % 1027,9 hPa 0,0 l/m 2,2 km/h (1 Bft) NO 44 5 min 733 W/m -4,5 C 9,1 C 8,0 km/h (2 Bft)
31.03.2020 14:45 9,0 C 40 % 1027,9 hPa 0,0 l/m 2,0 km/h (1 Bft) NO 41 5 min 726 W/m -3,9 C 9,0 C 9,7 km/h (2 Bft)
31.03.2020 14:40 8,9 C 39 % 1027,9 hPa 0,0 l/m 2,4 km/h (1 Bft) N-NO 21 5 min 721 W/m -4,3 C 8,9 C 8,0 km/h (2 Bft)
31.03.2020 14:35 8,8 C 39 % 1027,9 hPa 0,0 l/m 1,6 km/h (1 Bft) N-NO 32 5 min 717 W/m -4,4 C 8,8 C 6,4 km/h (2 Bft)
31.03.2020 14:30 8,6 C 39 % 1027,9 hPa 0,0 l/m 6,6 km/h (2 Bft) O 84 5 min 710 W/m -4,6 C 8,5 C 19,3 km/h (3 Bft)
31.03.2020 14:25 8,4 C 42 % 1028,1 hPa 0,0 l/m 1,8 km/h (1 Bft) O-SO 102 5 min 733 W/m -3,8 C 8,4 C 11,3 km/h (2 Bft)
31.03.2020 14:20 8,6 C 39 % 1028,1 hPa 0,0 l/m 2,9 km/h (1 Bft) NO 51 5 min 213 W/m -4,6 C 8,6 C 9,7 km/h (2 Bft)
31.03.2020 14:15 8,7 C 43 % 1028,1 hPa 0,0 l/m 2,0 km/h (1 Bft) NO 53 5 min 856 W/m -3,2 C 8,7 C 8,0 km/h (2 Bft)
31.03.2020 14:10 8,9 C 39 % 1028,2 hPa 0,0 l/m 4,6 km/h (1 Bft) N-NO 25 5 min 244 W/m -4,3 C 8,9 C 9,7 km/h (2 Bft)
31.03.2020 14:05 9,1 C 40 % 1028,1 hPa 0,0 l/m 3,9 km/h (1 Bft) NO 49 5 min 846 W/m -3,8 C 9,1 C 9,7 km/h (2 Bft)
31.03.2020 14:00 9,0 C 42 % 1028,1 hPa 0,0 l/m 3,3 km/h (1 Bft) O-SO 103 5 min 837 W/m -3,2 C 9,0 C 11,3 km/h (2 Bft)
_ Min-Zeit 05:55 15:40 13:40 - 19:00 - - - - 07:05 05:55 19:00
Minimum _ -5,1 C 35 % 1020,9 hPa - 0,0 km/h (0 Bft) - - - - -7,2 C -5,1 C 0,0 km/h (0 Bft)
_ Max-Zeit 16:05 05:35 14:10 14:00 15:15 - - 14:00 14:15 14:15 16:10 14:30
Maximum _ 9,3 C 86 % 1028,2 hPa 0,0 l/m 6,7 km/h
O-NO (2 Bft)
- - 5 min 856 W/m -3,2 C 9,3 C 19,3 km/h
O-SO (3 Bft)
Durchschnitt _ 2,9 C 58 % 1025,8 hPa #0,0 l/m 1,1 km/h (0 Bft) NO - #5:25 h 448 W/m -5,4 C 2,9 C 4,4 km/h (1 Bft)